User: anonymous   Login
Location: Columbia
(38.9520°N, 92.3340°W)
Time: 03:45:36
(UTC-05:00)
Language:

CZ-2C R/B - Orbit

View from above orbital plane
View from above orbital plane
View from above satellite
View from above satellite

Ground track
Ground track

The orbit data is extracted from the following two-line orbital elements,

1 28480U 04046B   18116.83100619 -.00000015 +00000-0 +98911-5 0  9991
2 28480 098.1776 197.6398 0142326 019.3656 086.6276 14.25670944698902
Epoch (UTC): 26 April 2018 19:56:38
Eccentricity: 0.0142326
inclination: 98.1776°
perigee height: 704 km
apogee height: 908 km
right ascension of ascending node: 197.6398°
argument of perigee: 19.3656°
revolutions per day: 14.25670944
mean anomaly at epoch: 86.6276°
orbit number at epoch: 69890

The dashed part of the orbit path shows where the satellite is in the earth's shadow,  

DLR